Regional Weather Roundup
Issued by NWS

Home | Current Version | Previous Version | Text Only | Print | Product List | Glossary On
Versions: 1 2 3 4 5 6 7 8 9 10 11 12 13 14 15 16 17 18 19 20 21 22 23 24 25 26 27 28 29 30 31 32 33 34 35 36 37 38 39 40 41 42 43 44 45 46 47 48 49 50
000
ASUS44 KLIX 251313
RWRLA
LOUISIANA WEATHER ROUNDUP
NATIONAL WEATHER SERVICE NEW ORLEANS LA
800 AM CDT THU MAY 25 2017

NOTE: "FAIR" INDICATES FEW OR NO CLOUDS BELOW 12,000 FEET WITH NO
      SIGNIFICANT WEATHER AND/OR OBSTRUCTIONS TO VISIBILITY.
      SKY/WX - SKY CONDITION AND SIGNIFICANT WEATHER.
      TMP - AIR TEMPERATURE.    DP   - DEWPOINT TEMPERATURE.
      RH  - RELATIVE HUMIDITY.  PRES - PRESSURE.
      HX  - HEAT INDEX.         WCI  - WIND CHILL INDEX.

*  THESE STATIONS ARE NOT NWS OR FAA STATIONS AND ARE NOT UNDER
   NWS QUALITY CONTROL.

LAZ040-048-061>063-065-066-069-251400-
SOUTHEAST LOUISIANA

CITY           SKY/WX    TMP DP  RH WIND       PRES   REMARKS
N.O. INTL ARPT SUNNY     67  59  75 SW3       29.87R
N.O. LAKEFRONT SUNNY     70  53  54 SW8       29.87R
N.O. DOWNTOWN*   N/A     70  55  59 CALM        N/A
RESERVE*       FAIR      66  61  82 CALM      29.88S
SLIDELL        SUNNY     65  55  70 CALM      29.86R
BATON ROUGE    SUNNY     63  59  87 CALM      29.87R
BOOTHVILLE     SUNNY     71  58  63 VRB3      29.88R
BELLE CHASSE   SUNNY     69  64  84 CALM      29.87R
BOGALUSA*      FAIR      63  55  76 CALM      29.88R
GALLIANO*      SUNNY     66  58  77 CALM      29.88R
NEW ROADS*     FAIR      61  57  86 CALM      29.88R
GONZALES*      FAIR      65  60  86 CALM      29.87R
HAMMOND*       SUNNY     63  54  72 CALM      29.87R
HOUMA*         SUNNY     66  59  77 S5        29.88R
PORT FOURCHON* SUNNY     72  55  56 NE3       29.88R

$$

LAZ041-044-053-054-251400-
SOUTHWEST LOUISIANA

CITY           SKY/WX    TMP DP  RH WIND       PRES   REMARKS
LAKE CHARLES   SUNNY     68  61  78 E5        29.84S
LAFAYETTE      MOSUNNY   66  60  81 SE3       29.87R
PATTERSON      SUNNY     67  61  81 CALM      29.88R
SALT POINT       N/A     69  62  78 E3        29.85S
NEW IBERIA     MOSUNNY   66  58  75 CALM      29.87S
CHENAULT AIRPK SUNNY     66  61  82 CALM      29.85R

$$

LAZ027-028-251400-
CENTRAL LOUISIANA

CITY           SKY/WX    TMP DP  RH WIND       PRES   REMARKS
FORT POLK      MOSUNNY   62  54  73 SE5       29.85S
ALEXANDRIA INT MOSUNNY   60  55  83 CALM      29.85R
ALEXANDRIA     MOSUNNY   60  56  86 CALM      29.86R

$$

LAZ001-002-251400-
NORTHWEST LOUISIANA

CITY           SKY/WX    TMP DP  RH WIND       PRES   REMARKS
SHREVEPORT     MOSUNNY   61  54  77 S8        29.83R
BARKSDALE AFB  MOSUNNY   59  57  91 S7        29.84R
DTN SHREVEPORT MOSUNNY   63  53  70 S7        29.84R

$$

LAZ014-016-251400-
NORTHEAST LOUISIANA

CITY           SKY/WX    TMP DP  RH WIND       PRES   REMARKS
MONROE         SUNNY     59  53  80 S3        29.85R
TALLULAH       SUNNY     59  54  83 VRB3      29.85R

$$




USA.gov is the U.S. government's official web portal to all federal, state and local government web resources and services.